ECMWFFLT1_850_spd_000.txt.gz
Wind_Speed
6 4 3 2 1 3 4 7 9 9 10 11 11 10 9 9 8 7 5 3 1 1 3 4 5 7 8 8 10 11 11 12 11 10 11 11 13 16 18 21 24 26 24 21 19 17 16 17 18 19 22 25 26 26 26 25 23 22 22 22 22 23 24
7 6 6 4 2 1 1 4 6 7 8 9 9 9 9 9 8 8 7 6 4 3 1 2 3 5 7 7 8 9 10 11 12 13 13 13 13 13 15 19 21 22 23 24 24 25 24 23 23 22 21 22 25 26 26 26 25 24 23 23 22 23 25
10 11 10 7 6 5 2 0 2 5 6 7 7 7 7 7 7 7 7 6 5 4 3 2 2 4 6 7 8 9 10 11 13 15 16 16 16 15 14 15 18 19 19 21 23 25 27 28 29 29 26 22 22 23 24 24 25 25 25 24 24 25 26
12 12 11 10 9 7 4 2 1 2 3 4 5 5 4 4 5 5 5 5 5 4 3 3 3 4 6 7 9 10 11 12 13 14 16 17 17 17 15 14 15 17 18 20 22 24 26 28 29 33 32 28 25 23 21 21 22 24 25 26 26 27 28
13 13 12 11 10 8 6 5 4 2 2 2 3 3 3 3 3 4 5 5 5 5 5 5 6 7 7 9 10 11 12 13 14 15 16 16 17 18 17 16 14 14 16 18 21 24 26 27 29 31 33 32 32 31 27 23 23 23 24 26 27 28 29
15 14 13 11 11 9 8 8 6 4 2 2 1 1 1 1 2 3 5 6 6 6 7 8 9 10 10 11 11 13 14 15 15 16 17 17 17 18 18 19 18 17 17 17 19 22 24 26 27 29 30 31 34 36 34 32 31 30 29 28 27 28 28
15 14 13 13 12 11 10 10 8 6 4 3 2 2 2 3 4 4 5 6 7 7 7 8 9 10 11 12 12 12 13 15 17 18 18 19 19 19 19 20 21 21 20 18 17 19 21 23 25 27 28 29 32 35 36 36 37 37 36 34 32 32 32
16 15 14 14 13 13 13 12 10 8 7 5 4 4 4 4 5 6 7 8 9 9 9 9 10 11 12 12 13 13 12 13 15 17 19 20 20 21 21 22 22 23 23 22 21 20 20 21 22 24 27 29 31 33 35 37 38 39 39 37 35 35 37
17 16 16 17 16 15 15 14 13 11 9 7 6 6 5 5 6 7 8 9 10 10 11 12 14 15 15 15 13 13 12 12 13 15 18 20 22 22 22 23 24 24 24 24 24 24 23 22 23 24 25 26 28 29 31 33 35 38 39 37 36 35 35
18 17 17 18 18 18 17 16 15 13 11 10 9 8 7 7 7 8 9 10 10 10 11 13 15 17 19 19 17 15 13 12 13 15 17 19 21 23 24 24 25 26 26 26 26 27 26 26 26 27 27 27 25 27 29 31 34 36 36 35 34 33 32
18 17 17 17 18 19 18 18 17 15 13 12 12 10 9 8 8 9 9 10 10 10 12 14 16 17 19 20 19 17 15 12 13 14 17 19 21 22 24 25 26 26 27 27 28 28 27 26 26 28 29 29 28 28 30 32 35 36 34 32 33 32 31
19 17 16 17 17 18 18 18 18 16 15 14 13 12 10 9 9 9 9 9 9 10 13 14 16 19 19 19 19 18 16 14 13 14 15 18 21 23 24 25 26 27 28 29 29 29 28 27 27 27 27 28 29 32 33 33 34 36 35 33 33 34 33
20 17 17 17 17 17 17 17 17 16 16 16 14 12 11 10 10 10 9 8 9 10 13 15 18 20 21 21 20 20 19 18 16 15 15 16 18 21 24 25 26 27 28 30 30 30 30 29 28 28 27 26 27 31 34 34 35 37 37 35 33 34 34
21 19 17 17 17 17 16 17 16 17 17 17 15 13 11 11 10 10 9 7 9 11 14 17 19 21 22 23 22 22 22 22 22 20 19 17 17 18 21 23 25 27 28 30 31 32 32 31 30 30 30 28 28 29 31 34 36 38 39 37 35 34 33
22 19 18 17 17 16 16 16 16 17 17 17 15 13 12 12 11 9 7 8 10 13 16 18 21 22 23 23 23 23 24 25 26 26 24 22 20 20 21 22 23 25 26 28 30 32 33 33 31 32 32 30 28 28 27 29 33 37 39 38 35 34 33
23 21 19 17 16 16 16 16 17 17 17 16 14 13 12 12 11 8 8 10 12 15 18 20 22 23 24 24 24 24 24 26 27 27 26 26 24 22 22 22 22 22 23 25 27 29 32 34 33 33 33 32 30 29 27 26 27 30 35 37 36 36 34
24 22 20 18 17 16 16 16 16 16 16 15 14 13 13 12 10 8 9 12 14 17 19 21 23 24 24 24 23 23 23 24 25 25 25 25 24 23 22 22 22 21 21 23 24 25 27 31 34 34 35 34 33 32 31 29 27 27 30 34 38 38 34
25 23 21 18 17 16 16 16 16 16 15 14 13 13 12 11 9 9 11 13 16 18 20 22 23 24 23 22 22 23 23 23 23 23 24 24 23 22 22 23 22 22 22 23 24 24 24 26 30 34 36 37 35 33 32 31 30 28 28 30 34 36 34
26 23 21 18 17 16 15 15 15 14 14 13 13 12 11 10 10 11 13 15 17 20 22 23 23 22 22 22 22 24 24 24 24 23 23 23 23 23 23 23 23 23 23 25 25 25 24 24 25 28 34 37 37 35 34 33 30 29 29 28 29 30 32
26 22 20 18 16 15 14 13 12 12 12 12 12 11 10 10 11 13 15 17 20 22 23 22 21 21 21 22 23 24 25 25 25 23 22 22 22 23 24 24 25 25 25 25 26 26 25 24 24 24 28 34 37 37 36 36 33 30 29 27 26 27 30
24 21 19 16 14 13 12 11 11 11 11 11 11 10 10 11 12 14 17 20 22 23 22 22 21 21 22 23 24 24 25 25 25 24 23 22 22 23 23 23 25 25 26 26 26 26 26 26 26 26 25 27 33 37 39 38 37 34 31 29 27 25 25
22 20 18 15 14 12 11 10 10 9 9 10 10 10 10 12 14 17 20 22 22 21 22 23 24 24 26 27 27 26 25 25 24 24 25 25 25 25 25 25 25 25 26 27 27 28 29 29 29 30 29 27 28 33 38 40 40 39 36 34 33 31 27
22 20 18 15 14 12 10 9 7 7 8 9 9 9 11 14 17 19 20 20 20 21 23 25 26 27 29 29 29 29 27 24 23 23 24 26 27 27 28 28 28 27 27 27 28 29 30 30 31 32 33 32 30 31 34 38 41 42 40 39 38 36 33
24 22 19 16 15 12 9 6 5 6 8 9 9 11 14 16 18 18 18 19 20 22 24 26 27 29 30 30 30 30 28 26 25 26 27 28 29 29 29 30 30 30 30 30 29 28 28 29 30 30 31 32 32 32 31 33 37 40 42 42 42 40 38
27 24 19 17 15 11 7 4 5 7 8 9 11 14 16 17 17 17 17 18 20 23 25 26 28 29 30 30 30 29 28 28 29 29 30 31 32 32 32 33 32 33 33 33 32 31 31 30 29 30 30 31 32 33 32 32 33 36 39 41 44 44 42
29 24 20 18 15 9 6 6 7 8 9 11 14 16 17 16 16 16 17 20 23 25 27 27 28 29 30 30 29 28 28 29 31 32 32 33 34 34 35 35 35 35 35 35 34 34 33 33 31 30 31 31 33 34 34 34 34 36 37 38 42 46 46
30 24 22 20 14 9 8 7 7 9 11 14 16 17 17 16 17 18 20 23 26 27 28 28 28 28 28 28 27 27 29 31 32 34 34 35 36 36 36 35 35 36 35 35 35 34 33 33 33 33 33 33 34 34 35 35 35 35 35 35 38 43 46
30 26 24 20 14 10 8 7 9 11 14 16 17 17 17 18 19 21 23 25 25 26 26 26 26 26 26 27 28 28 30 32 33 35 36 36 36 36 35 34 34 35 35 35 34 32 32 32 33 34 35 36 37 37 37 37 35 34 33 33 35 38 41
29 27 25 19 13 11 9 10 11 13 15 16 17 17 18 19 21 21 21 21 22 23 23 23 23 24 25 26 27 28 30 32 34 35 36 37 36 35 34 33 34 35 36 35 34 32 32 32 33 35 37 38 39 40 42 41 38 36 36 37 37 38 38
28 27 23 16 12 11 11 12 13 14 15 16 16 16 18 19 18 18 19 20 23 25 26 25 25 26 26 27 28 29 30 31 33 34 36 36 36 35 35 34 34 36 37 37 36 35 33 32 34 36 37 39 39 41 43 42 38 38 39 39 41 41 40
27 24 18 13 12 12 13 13 12 13 14 15 14 15 15 15 16 19 21 23 26 29 31 32 31 30 30 29 30 30 31 31 32 33 35 35 36 36 36 35 35 36 39 39 38 38 36 34 35 36 37 39 41 43 43 40 37 37 37 37 38 41 42
25 20 16 14 13 13 13 12 11 12 12 12 12 13 14 15 18 23 25 26 28 31 36 39 37 35 33 32 31 30 30 31 32 33 34 36 37 37 37 37 37 37 39 39 39 39 38 36 36 36 37 39 43 45 43 40 38 38 36 36 36 37 41
22 18 16 15 14 13 12 9 7 7 8 9 11 14 15 16 20 24 26 28 29 32 37 41 40 37 35 33 32 30 29 30 32 33 35 36 38 39 39 39 39 39 38 39 39 39 38 37 36 36 37 40 44 45 41 39 39 38 36 36 36 34 37
20 17 15 15 14 12 7 1 3 6 7 9 12 15 16 18 21 25 27 29 30 32 37 42 42 39 37 35 33 30 30 31 32 34 36 37 38 40 40 40 40 40 39 39 38 38 38 37 36 37 38 40 42 41 39 39 40 38 36 36 36 35 36
19 17 16 13 11 7 4 7 9 8 8 10 13 15 17 19 23 26 28 29 30 32 36 42 44 43 40 37 34 32 31 31 31 33 35 37 38 39 40 41 41 40 39 39 39 39 39 38 38 39 40 40 39 37 36 38 39 39 40 40 39 40 39
18 16 13 9 7 6 7 9 10 8 9 11 13 15 18 20 23 26 27 28 29 32 36 42 45 45 43 40 37 34 32 32 31 32 34 37 38 39 40 41 41 40 39 39 39 39 39 38 39 40 41 40 39 37 35 35 37 39 41 41 41 42 42
16 13 10 8 7 6 5 6 8 9 9 11 13 16 19 21 24 25 27 29 30 32 37 42 45 46 45 42 40 38 34 32 32 32 34 37 38 40 41 41 41 40 39 38 38 38 38 38 39 41 41 40 39 37 36 36 37 38 39 40 41 42 41

ECMWFFLT1_850_spd_006.txt.gz
Wind_Speed
9 7 5 4 4 5 5 6 7 8 9 10 10 10 9 8 7 5 3 2 1 1 2 2 2 2 2 3 4 5 6 6 7 7 7 7 6 6 6 7 8 9 11 13 14 15 15 16 17 15 13 14 14 14 14 13 13 14 15 16 17 18 18
9 8 6 5 4 4 4 5 5 6 7 8 9 9 9 9 9 8 7 5 4 3 2 2 3 3 2 3 4 5 6 7 7 8 8 8 8 8 7 7 7 7 8 8 9 11 12 13 16 17 17 17 17 17 16 15 16 16 17 17 18 18 18
10 9 8 6 5 4 3 3 4 4 4 6 7 8 8 8 8 7 7 5 4 3 3 3 3 3 3 3 4 5 6 7 7 8 8 9 9 10 10 10 9 9 9 8 7 7 8 10 12 14 16 18 19 20 20 20 20 20 21 21 22 22 20
11 9 8 7 6 5 4 3 3 3 3 4 6 6 7 6 6 5 4 4 3 2 2 2 3 3 4 4 5 6 7 8 9 9 9 10 10 11 11 12 12 11 10 9 9 8 8 9 11 13 14 15 18 20 21 21 22 22 22 23 23 24 24
12 9 7 6 6 5 5 4 4 3 3 4 4 5 5 4 4 3 2 2 2 2 1 1 2 3 4 5 6 6 7 8 9 10 11 12 12 12 13 13 13 13 12 11 11 11 10 10 11 13 15 15 17 21 22 22 22 22 22 22 22 22 23
14 11 8 7 7 6 6 5 5 4 4 4 4 4 4 4 3 2 1 0 1 1 1 2 3 4 5 6 6 7 8 8 8 9 10 11 13 13 14 14 14 14 14 14 14 14 13 13 13 14 16 15 16 20 21 21 22 23 22 21 21 20 20
16 14 11 8 8 8 7 6 5 5 5 4 5 5 5 4 3 2 2 1 0 1 1 1 2 4 5 6 7 8 8 9 9 10 10 10 11 12 13 14 15 16 16 17 17 17 17 17 16 16 17 16 17 19 19 19 20 21 22 21 19 18 18
18 17 13 10 9 9 8 7 7 6 6 6 6 6 5 5 5 4 3 1 1 2 2 2 3 4 5 6 7 8 9 9 9 9 10 10 10 11 13 14 15 16 17 18 19 19 19 20 19 19 19 18 19 21 22 22 22 22 22 22 21 19 17
20 19 17 13 12 11 9 9 8 8 7 7 7 7 6 6 5 4 3 2 2 3 4 4 4 5 6 8 9 9 10 10 10 10 10 10 10 11 12 13 15 16 17 19 20 21 20 21 21 22 22 20 19 22 24 25 26 25 25 24 23 21 19
22 21 20 17 14 13 11 10 10 10 10 10 9 8 8 7 6 5 4 3 4 5 5 5 5 5 7 8 9 11 11 12 12 12 11 11 11 11 12 13 14 15 16 18 19 21 21 22 22 22 23 22 19 19 20 23 27 29 29 28 27 26 24
23 22 21 19 17 15 13 12 13 12 12 12 11 10 10 9 8 7 6 5 6 7 7 7 6 6 7 9 10 12 13 13 14 14 14 13 13 12 12 13 14 15 16 17 18 20 21 22 23 23 23 23 22 21 19 21 28 32 30 28 28 30 30
24 23 22 21 19 18 16 15 14 14 14 14 13 12 11 10 9 8 8 8 8 9 9 9 8 8 9 10 12 14 15 16 16 16 16 16 16 16 15 15 14 15 16 17 17 19 20 21 22 23 24 24 24 24 23 22 28 33 32 30 30 30 31
26 24 23 22 22 20 17 17 16 15 15 15 14 13 13 12 11 10 10 10 11 11 11 11 11 11 11 12 14 15 16 18 18 19 19 19 19 19 19 18 18 17 17 17 17 18 19 20 21 22 23 24 24 25 26 25 28 35 35 34 35 34 32
30 28 26 25 24 22 19 18 18 17 17 17 16 15 14 14 13 12 12 12 13 13 13 13 13 13 13 14 15 16 18 19 20 21 22 22 22 21 21 21 20 20 20 20 20 19 19 19 20 21 22 23 23 23 25 25 29 35 37 35 36 37 35
33 32 31 29 27 25 22 20 19 19 19 19 18 17 16 16 15 15 15 15 15 15 15 15 15 15 15 15 16 17 19 20 22 24 24 25 25 24 24 23 22 21 20 21 22 22 21 20 20 21 22 23 24 23 23 23 25 31 36 36 36 37 37
35 36 35 33 31 29 25 22 21 21 20 20 20 19 18 17 17 17 17 18 18 17 17 17 17 17 17 17 17 18 20 22 23 25 26 26 27 27 27 26 25 24 22 21 21 21 23 23 22 22 21 22 24 24 24 23 24 26 32 36 36 36 37
34 38 39 36 34 32 28 25 23 22 21 21 21 20 20 20 19 19 20 20 20 19 19 19 19 19 18 18 18 20 21 23 24 25 26 27 28 28 28 28 27 27 26 25 23 21 21 23 23 24 23 22 22 23 24 23 23 24 27 32 34 34 35
33 36 40 40 37 35 32 28 25 24 23 22 22 21 21 22 21 21 21 21 20 20 20 20 20 20 19 19 20 21 23 24 24 25 25 26 27 28 29 29 28 28 28 29 28 26 24 23 23 24 25 24 23 22 22 22 22 22 24 29 33 34 34
38 37 39 41 41 39 36 31 28 26 25 24 23 23 23 22 22 22 21 21 21 20 20 20 20 20 19 19 21 23 24 24 24 25 26 26 27 27 28 29 29 29 29 30 30 30 28 26 26 25 25 26 24 23 22 21 21 21 22 26 31 34 34
40 41 40 42 43 42 38 33 30 28 27 25 24 24 24 23 23 22 21 21 20 20 19 20 20 20 20 21 22 23 24 25 26 27 28 28 28 28 28 28 28 29 29 30 30 30 30 30 29 28 27 28 28 28 27 26 26 25 25 26 30 32 33
37 39 41 43 43 40 36 34 32 30 28 27 26 25 25 25 24 23 21 21 20 20 20 20 20 20 21 21 22 23 25 26 28 29 29 29 29 29 28 28 28 28 28 29 30 30 31 32 32 32 31 30 30 31 32 32 31 30 30 29 30 31 33
34 36 39 41 40 37 35 35 34 32 29 28 26 26 25 25 24 23 22 21 20 20 20 20 20 20 21 21 22 24 26 28 29 29 29 29 29 28 28 28 28 28 27 28 28 29 30 31 32 33 33 32 32 33 34 35 35 34 33 32 31 32 33
31 33 36 37 37 37 36 37 38 35 30 28 26 26 26 25 24 23 22 21 20 19 18 19 19 19 19 21 23 24 25 26 26 27 28 28 28 28 28 28 28 28 28 28 28 29 29 30 31 32 33 33 33 33 34 35 36 36 36 36 34 33 34
28 30 32 33 35 37 37 38 39 34 29 27 26 25 25 23 23 22 21 20 18 17 17 17 18 18 19 21 21 22 23 23 24 26 27 28 29 29 29 29 29 29 29 29 30 30 31 31 32 33 34 34 34 34 34 35 36 36 37 38 38 36 36
26 29 30 30 34 38 38 38 36 31 29 29 27 25 23 22 22 21 19 17 16 15 15 16 17 18 19 19 19 20 21 22 23 24 25 27 28 29 29 30 30 30 30 31 31 32 33 34 34 35 36 36 36 36 35 35 35 36 36 37 39 39 39
25 29 30 29 32 37 39 39 37 34 32 31 28 26 24 23 21 20 18 15 13 13 14 15 16 16 17 18 19 21 22 23 24 25 26 26 27 28 29 30 31 31 31 31 32 33 34 35 36 37 38 38 38 39 38 37 36 35 35 36 38 40 40
24 27 29 30 32 35 39 39 37 34 32 29 27 26 24 23 21 18 16 13 12 13 14 14 14 14 16 19 21 22 23 24 26 26 27 27 28 28 29 30 31 31 31 31 31 32 33 35 36 38 38 39 40 39 39 39 38 37 36 36 37 39 37
24 26 28 29 31 36 39 38 34 32 29 26 24 23 21 20 18 15 13 12 12 13 13 13 13 15 17 19 21 22 24 26 28 28 29 29 29 30 29 30 31 31 31 31 30 30 32 33 35 37 38 40 40 40 40 40 39 39 39 38 39 39 37
23 26 28 29 32 37 39 36 33 31 28 25 23 20 18 16 15 13 13 12 13 13 13 13 14 17 19 20 22 24 26 28 30 31 31 32 32 31 31 31 31 31 32 31 30 29 30 31 34 36 38 39 40 41 42 41 39 40 40 40 40 40 39
23 26 28 30 34 38 39 36 34 31 28 25 21 17 15 13 12 12 13 13 13 13 13 14 16 18 19 20 23 25 27 29 32 33 34 35 35 34 33 32 32 32 32 31 30 28 28 29 33 35 37 39 40 42 43 41 40 40 40 41 42 41 41
24 27 28 30 34 37 39 37 32 27 24 21 17 14 12 12 12 13 14 14 14 13 12 14 17 18 19 21 23 25 28 31 34 36 37 38 37 37 36 34 33 32 32 31 30 28 27 27 31 34 36 39 41 44 44 43 42 42 41 42 43 42 42
24 27 30 30 32 36 38 35 30 25 21 17 14 12 12 12 12 13 14 14 14 12 12 15 18 19 20 21 23 25 29 33 35 37 39 40 40 39 38 37 35 33 33 32 31 30 29 29 30 32 33 36 41 44 43 43 44 43 42 42 42 41 41
22 26 30 31 32 38 38 33 28 24 20 16 13 12 11 11 11 12 14 14 14 13 14 16 18 20 20 21 23 25 29 33 36 38 40 41 42 42 40 39 37 35 34 34 33 33 32 32 33 34 33 35 39 41 40 40 41 40 40 41 40 39 39
21 25 28 29 34 39 37 32 27 21 18 15 13 11 11 11 11 12 13 14 13 13 15 17 19 20 21 21 22 25 30 33 36 39 41 42 43 44 42 41 39 38 36 36 35 35 35 34 35 35 36 37 39 40 39 39 39 38 39 41 38 37 39
22 24 27 33 42 42 35 29 23 17 15 13 11 10 11 11 11 11 11 12 13 14 16 18 20 20 20 21 23 26 30 33 36 39 42 44 44 44 44 42 41 40 38 38 37 36 36 35 35 35 36 37 38 38 38 39 39 38 40 41 40 39 39
25 27 32 40 44 39 31 24 18 15 14 14 13 12 11 10 9 9 10 11 13 14 16 18 19 19 20 22 23 26 29 33 36 38 41 44 45 45 45 44 43 42 40 39 38 37 35 34 33 33 34 34 34 34 35 36 37 37 39 41 42 42 42
28 32 36 34 30 27 24 20 18 17 15 14 13 11 9 7 8 9 10 11 12 13 14 16 18 19 21 22 24 26 30 33 36 38 41 44 45 45 45 44 43 42 40 39 38 36 33 31 29 29 29 29 29 30 32 35 36 37 39 41 41 42 43

ECMWFFLT1_850_spd_009.txt.gz
Wind_Speed
7 5 5 4 5 5 6 7 7 7 8 9 9 9 9 8 7 6 6 5 5 4 4 4 3 3 3 3 3 3 4 4 5 5 5 6 5 5 5 6 7 8 8 9 9 8 8 9 9 9 10 12 11 11 11 11 11 12 11 10 10 10 10
9 7 5 4 4 4 5 5 6 6 7 8 9 9 9 9 8 8 8 7 7 7 6 6 5 4 2 0 1 1 2 3 4 4 5 6 6 6 6 6 6 6 6 7 7 7 6 8 9 8 10 13 15 15 14 14 15 15 15 14 14 14 15
11 9 8 6 5 5 4 4 5 5 5 7 7 8 8 8 7 7 6 6 6 6 6 6 5 4 3 2 2 2 2 3 3 4 5 6 7 7 7 7 7 7 6 6 7 7 6 7 8 9 9 10 12 15 16 16 17 18 18 18 18 19 19
12 11 10 9 7 6 5 5 5 5 4 5 6 6 6 6 6 5 4 4 4 4 5 5 5 5 4 4 4 3 3 3 4 5 6 6 7 8 8 8 8 8 8 7 8 8 7 7 8 9 9 9 11 13 14 15 17 18 19 19 19 19 19
13 12 11 10 9 7 6 5 5 5 5 4 4 5 5 5 4 4 3 2 2 3 3 4 4 5 5 6 6 6 5 4 3 4 5 7 9 9 10 10 9 9 9 9 10 11 10 9 9 10 10 10 12 13 15 17 18 18 18 19 18 18 18
14 13 11 10 10 9 8 6 5 4 5 4 4 4 4 4 4 3 2 1 1 1 1 2 3 4 5 6 6 6 6 6 6 5 4 5 6 8 10 10 11 11 11 11 11 12 13 12 11 11 11 12 14 15 16 18 20 20 20 19 18 17 17
15 14 13 12 11 11 10 8 5 4 5 5 5 5 4 4 4 3 2 2 2 1 1 1 2 3 4 5 6 6 7 7 8 8 7 7 6 6 7 9 11 12 13 13 13 13 14 15 14 12 12 15 18 19 17 17 19 20 19 18 18 17 15
17 15 14 13 12 12 12 10 7 6 6 6 6 6 6 5 4 4 3 3 3 3 2 1 0 1 3 5 6 7 8 8 9 9 10 9 9 9 8 8 8 10 12 13 14 15 15 16 16 15 14 14 17 19 19 18 20 23 23 21 22 21 16
18 17 16 15 14 14 13 12 10 8 7 7 7 7 7 6 6 5 4 4 5 4 4 3 2 2 3 5 7 8 8 9 10 11 11 11 11 11 11 11 10 10 11 12 13 14 15 16 17 17 15 12 13 15 16 18 20 20 21 20 21 22 18
19 19 18 17 16 15 15 14 12 11 10 9 8 8 8 8 7 7 6 6 6 6 5 5 4 4 5 6 7 8 9 10 11 11 12 13 13 13 13 13 12 12 13 13 13 14 15 16 16 17 15 12 12 13 14 17 20 17 17 20 19 19 19
21 21 20 20 19 18 17 16 15 14 13 12 10 10 9 9 9 9 8 8 8 7 6 6 6 6 6 7 8 9 10 11 12 12 12 13 14 14 15 14 14 14 14 14 14 15 15 15 16 17 17 14 13 14 14 16 22 23 21 23 20 15 18
22 22 22 22 22 21 19 19 18 17 16 15 14 12 11 11 10 10 10 10 9 8 7 7 7 7 8 8 8 9 10 11 12 13 13 14 14 14 15 15 16 15 15 14 14 14 14 15 15 16 17 17 15 14 15 16 23 28 26 25 24 21 23
22 24 24 24 25 24 22 21 20 19 18 18 17 16 14 13 12 11 12 11 11 10 9 8 8 9 9 10 10 10 10 11 12 14 15 16 17 17 17 17 17 18 18 18 16 15 14 14 14 14 16 17 15 13 14 15 23 31 30 28 30 29 30
24 24 25 26 26 26 25 23 22 22 21 20 20 19 17 15 14 13 14 14 13 12 12 11 11 11 11 12 12 12 11 11 12 13 15 17 18 19 19 19 20 20 20 21 20 19 18 17 16 14 14 16 15 12 13 14 21 31 32 29 31 32 31
27 24 25 28 28 28 27 26 25 24 24 23 22 21 20 18 17 16 16 16 15 15 14 13 13 13 14 14 14 15 14 13 13 13 15 16 18 18 19 20 20 21 21 21 21 20 20 19 19 17 16 16 13 10 12 14 19 27 32 30 30 31 32
33 29 27 28 30 30 29 28 27 27 26 25 24 23 22 20 19 19 19 18 18 17 16 15 15 15 16 16 17 17 17 16 15 15 16 17 18 18 19 20 21 22 22 21 21 20 20 19 19 19 18 18 15 11 10 13 16 21 28 30 29 28 29
37 37 34 32 30 30 31 31 31 30 29 28 27 26 24 23 22 22 22 22 21 19 18 17 17 17 18 19 20 19 19 19 18 18 18 19 19 20 21 22 22 22 22 21 21 20 20 20 19 19 19 19 19 17 13 13 15 17 21 26 27 25 25
33 38 39 38 35 32 32 32 33 33 32 31 30 28 27 26 26 25 25 24 23 21 20 19 19 20 21 22 22 21 21 20 20 19 20 21 21 22 23 23 22 21 21 21 20 20 19 19 19 20 20 19 19 20 18 16 16 17 19 24 26 23 23
26 31 36 39 39 38 36 34 34 35 35 35 33 31 29 29 28 28 27 26 25 23 22 21 21 23 23 23 23 22 22 22 22 21 22 23 23 24 23 23 22 21 20 20 19 19 19 19 19 20 20 21 20 21 22 21 20 22 23 26 28 28 28
20 24 27 32 36 39 40 39 37 36 38 39 36 31 30 31 30 29 28 27 27 25 24 24 24 25 24 23 23 23 23 23 22 22 23 24 25 24 23 22 21 20 20 19 19 19 19 19 20 19 19 19 19 20 22 23 23 24 26 27 29 30 31
17 19 22 25 29 33 35 37 38 37 37 37 35 33 33 34 32 30 29 28 28 27 26 26 26 25 24 23 23 24 23 23 22 23 24 25 24 24 23 22 21 21 20 20 20 19 19 20 20 19 18 16 15 16 19 21 22 23 24 26 28 29 30
15 17 20 22 24 26 27 29 32 33 33 34 35 36 36 34 31 31 31 30 30 29 28 27 26 25 24 23 24 23 23 23 23 23 24 24 24 24 23 23 23 22 22 22 22 21 21 21 21 22 22 20 17 15 15 16 17 18 20 23 25 27 29
17 17 19 20 21 21 21 22 24 27 30 32 35 37 37 34 32 33 34 33 32 31 28 26 24 23 23 23 23 22 22 22 22 22 23 23 24 24 24 25 24 24 24 24 24 24 23 23 23 24 24 23 21 20 19 17 16 17 18 20 21 23 25
20 20 20 20 19 19 20 21 22 25 28 31 34 37 37 34 33 34 35 33 31 29 26 23 22 22 21 21 21 20 20 20 21 21 22 23 24 25 26 26 26 26 27 26 27 27 26 26 26 26 26 26 25 25 25 23 22 20 19 20 21 20 21
22 22 22 21 19 18 19 21 23 26 28 31 34 36 35 33 33 35 34 32 29 25 22 21 20 20 19 19 18 18 18 19 20 21 22 23 24 25 26 27 28 28 28 28 28 28 29 29 29 29 29 29 29 29 29 28 28 27 24 24 24 23 23
23 24 24 23 21 18 18 20 23 25 28 31 35 37 34 33 34 35 33 30 26 22 20 19 19 18 18 17 16 16 17 18 20 21 22 24 25 26 27 28 29 29 29 29 29 29 30 31 31 32 32 33 33 33 32 32 31 31 30 29 28 27 24
22 23 24 25 24 20 19 20 22 25 28 32 36 37 35 34 36 34 31 27 23 20 19 18 17 16 15 14 15 16 17 19 20 22 23 24 25 26 27 28 30 31 31 30 30 30 30 31 33 34 34 34 35 34 35 33 30 29 30 30 31 30 25
21 23 24 25 25 22 20 20 22 25 28 32 35 37 36 36 35 32 28 24 20 18 16 14 13 13 12 13 15 17 18 20 21 23 24 25 27 28 29 29 31 31 32 31 30 29 30 31 33 34 35 36 36 36 36 34 29 25 24 25 26 26 23
21 22 24 25 25 22 19 19 21 23 27 31 35 37 36 35 33 29 25 21 18 15 13 12 11 11 12 14 16 18 20 22 23 24 26 27 29 30 31 31 31 32 32 32 31 30 30 31 32 34 36 36 37 37 37 36 34 32 31 30 28 27 25
22 23 24 25 25 22 18 17 19 22 27 32 37 38 36 34 30 25 21 17 14 12 12 10 10 11 12 14 17 19 21 23 25 27 28 30 31 32 32 31 31 32 33 32 32 31 30 30 32 34 35 35 35 35 35 34 36 37 37 38 37 37 36
23 23 23 24 24 21 17 17 20 23 28 34 39 39 36 32 27 21 17 14 13 13 12 11 10 11 13 16 18 20 22 24 26 28 30 32 34 34 34 34 32 33 33 33 32 31 30 31 32 32 33 33 33 33 33 33 35 36 36 37 37 36 35
23 23 23 24 23 20 16 17 21 25 30 36 38 35 30 26 22 19 16 14 13 12 11 10 11 12 13 16 19 21 23 25 26 29 31 34 36 36 37 37 37 37 36 34 32 32 30 30 31 32 31 30 30 31 31 32 32 31 31 31 31 29 28
23 22 23 23 22 18 16 17 22 26 31 36 34 28 23 21 19 17 14 12 11 9 9 9 10 11 13 17 19 21 23 24 26 29 31 34 37 38 38 40 41 40 39 37 35 34 32 30 30 31 31 30 31 32 31 30 29 29 29 30 29 29 29
21 21 22 22 19 17 16 19 23 28 33 34 30 26 23 20 16 12 10 8 7 7 7 8 9 12 15 17 19 20 22 24 26 29 32 35 38 39 41 42 41 38 38 38 37 35 33 31 30 31 32 33 34 34 32 31 29 28 27 27 27 28 29
20 21 22 20 16 16 18 20 24 31 35 32 28 26 23 18 14 11 8 6 6 6 7 9 11 13 15 16 18 20 22 24 27 29 33 36 38 40 42 41 37 36 38 40 37 35 34 31 30 31 32 32 32 31 29 29 28 27 27 26 25 25 26
19 21 21 18 16 18 20 23 29 34 34 31 28 24 19 14 12 9 7 6 7 8 8 10 12 13 14 17 19 22 24 26 28 30 34 36 38 40 40 37 36 38 40 39 36 34 32 30 29 29 28 27 27 26 26 27 29 29 30 30 29 28 28
19 20 18 17 19 22 24 27 32 33 30 26 22 17 13 11 9 8 7 7 7 8 9 10 12 14 17 19 21 23 24 26 28 30 33 36 37 39 39 38 38 39 38 36 34 33 31 29 28 26 24 23 23 23 25 27 28 29 30 31 32 33 33

ECMWFFLT1_850_spd_015.txt.gz
Wind_Speed
9 9 8 7 6 5 5 5 5 5 6 6 6 6 6 5 5 4 4 4 3 3 3 3 2 2 1 3 3 2 2 2 2 2 2 2 3 5 6 7 9 9 8 6 5 7 8 9 11 9 8 9 11 14 14 15 15 13 12 11 11 11 12
10 10 8 7 6 6 5 5 5 4 4 5 6 6 6 6 6 6 5 5 5 5 4 3 2 1 1 1 1 1 2 1 2 3 3 2 1 1 1 2 5 5 5 5 4 5 5 7 9 8 8 9 10 11 13 16 15 13 14 14 11 10 11
11 10 9 8 7 6 5 5 5 4 3 4 5 5 5 6 6 7 6 6 7 6 4 4 5 5 5 5 5 5 5 4 3 2 3 2 1 2 1 1 2 2 4 5 4 4 4 5 6 6 7 9 10 11 12 14 16 15 15 16 15 12 10
13 12 11 9 8 7 6 5 5 4 3 2 3 4 4 4 5 6 6 6 6 6 6 7 8 8 8 8 8 8 8 7 6 5 3 2 2 1 1 1 1 2 2 3 3 4 3 5 6 6 7 8 9 11 12 13 14 14 13 13 15 14 11
14 13 12 11 10 9 8 7 6 6 4 2 1 2 3 3 4 5 5 5 5 5 6 7 7 7 7 8 8 8 7 7 7 7 6 5 4 4 3 2 1 2 2 3 4 5 5 5 6 7 7 8 9 9 9 10 11 12 12 12 14 13 12
15 14 13 12 11 10 9 8 7 6 5 4 2 1 1 2 2 3 4 4 4 4 4 4 4 4 5 6 6 6 6 6 6 5 5 5 4 4 4 4 3 2 2 3 3 2 4 5 5 7 7 8 9 10 10 10 11 12 11 11 12 12 11
17 16 14 13 12 11 10 10 8 7 7 6 4 3 2 0 1 2 2 2 2 2 2 2 2 2 3 4 4 4 5 5 5 5 4 4 4 3 3 3 3 3 3 4 4 3 3 4 4 5 7 7 8 10 10 10 10 10 9 8 7 8 9
16 17 15 13 13 12 11 11 10 9 8 7 6 5 3 3 2 1 0 0 1 1 1 1 1 0 1 1 2 3 3 4 4 4 4 4 4 4 3 3 4 4 4 4 5 4 2 3 3 4 6 7 8 8 8 8 7 7 7 6 6 6 7
15 16 15 14 14 14 13 12 11 10 9 9 9 6 4 4 5 4 3 2 1 1 1 2 2 2 2 1 2 2 3 4 4 4 4 4 4 4 4 3 3 2 3 3 3 3 3 2 2 3 4 6 8 8 8 7 7 6 5 5 6 5 4
16 15 15 15 15 15 14 13 12 12 11 11 11 9 5 6 6 6 6 5 4 3 3 3 4 3 3 3 3 2 3 3 4 4 5 5 5 5 5 5 3 3 4 4 3 4 4 4 3 3 3 4 6 8 8 9 8 7 7 6 6 6 6
19 17 15 15 15 16 16 15 14 14 13 14 13 11 8 7 8 7 7 8 6 6 6 5 5 5 4 5 4 4 4 4 3 4 5 5 6 6 6 7 6 5 7 7 6 5 5 5 5 4 4 4 5 7 8 10 10 9 9 9 8 8 7
22 20 17 15 15 15 16 16 15 15 15 15 15 14 11 10 10 9 9 10 8 8 8 8 8 7 6 6 6 6 6 5 4 5 5 5 6 7 7 7 8 8 10 10 8 9 9 8 7 6 6 5 6 7 8 9 12 11 9 9 10 10 11
22 21 19 17 17 16 16 16 16 16 17 16 17 16 14 13 13 12 11 11 11 11 10 10 10 9 9 9 7 7 7 5 5 6 6 6 6 6 7 8 8 9 10 11 9 11 12 10 10 10 8 6 6 8 8 9 12 13 12 12 13 14 14
23 21 19 18 19 19 17 17 17 17 18 18 18 18 17 15 16 15 14 14 13 13 13 12 12 11 11 10 8 9 9 7 5 6 7 8 8 7 6 7 9 11 11 12 10 10 9 9 11 12 10 8 7 7 8 9 12 14 14 13 13 14 14
25 24 21 19 19 19 19 18 18 18 18 19 20 20 19 18 18 17 16 16 15 15 15 15 14 14 13 13 13 12 12 9 6 8 9 9 9 10 9 8 9 11 12 13 12 10 7 7 8 8 8 9 9 9 9 9 11 14 15 14 14 14 14
21 21 20 19 18 21 24 21 18 18 18 19 20 21 21 20 20 19 18 18 17 17 17 16 17 16 14 15 16 15 14 12 10 11 11 9 7 9 12 11 11 13 14 14 14 12 9 8 7 7 9 10 11 11 11 11 12 14 16 16 15 14 13
15 16 18 17 16 19 24 25 23 20 19 19 20 21 22 22 21 20 20 20 19 19 19 18 18 18 16 16 18 17 16 14 13 12 11 9 8 9 12 11 10 12 14 14 14 12 9 8 8 9 10 10 11 12 11 12 13 13 15 16 16 16 16
13 16 18 21 21 20 22 24 25 24 21 21 21 21 22 22 22 22 22 21 20 20 20 19 20 19 18 18 18 18 16 15 14 13 12 12 11 12 13 12 11 12 13 13 13 11 10 11 12 11 11 11 11 12 13 13 14 15 16 18 19 19 19
9 11 14 18 22 24 25 25 25 25 24 23 24 23 23 23 23 23 22 22 21 20 19 19 20 20 18 18 19 19 18 16 15 14 13 13 13 13 13 13 13 14 14 13 13 13 13 14 15 14 14 14 14 14 15 16 16 16 17 18 19 19 19
6 7 9 12 15 20 23 23 22 22 22 21 23 24 25 25 25 24 24 23 22 21 20 20 21 20 19 19 20 20 19 18 16 15 15 14 14 15 15 14 15 15 15 15 14 15 15 16 16 16 16 16 15 15 16 17 16 16 17 18 18 18 18
11 12 12 13 15 18 18 18 19 20 21 23 24 25 25 25 24 24 25 24 23 23 22 22 23 22 21 21 23 22 21 20 17 17 17 16 15 16 16 16 16 16 16 16 16 17 17 17 17 17 16 16 17 18 19 18 17 17 17 17 17 17 17
16 17 17 15 16 18 16 15 16 18 21 23 25 24 23 23 23 24 25 24 24 25 25 24 24 24 23 23 24 23 22 20 17 17 17 16 16 17 17 17 18 18 18 18 18 18 18 18 18 18 17 18 18 19 20 20 20 18 17 18 18 17 17
10 12 14 13 14 16 14 13 13 15 18 19 21 21 22 23 24 25 25 24 24 26 26 25 26 27 27 26 24 23 22 20 18 17 16 15 16 17 17 17 19 21 21 20 20 20 19 18 19 19 18 18 19 20 21 22 22 21 20 20 19 18 19
7 8 10 10 11 12 12 12 12 14 17 17 17 17 19 21 23 24 24 24 25 27 28 27 29 32 32 29 25 23 22 21 20 18 17 16 16 16 16 16 17 20 22 22 22 23 22 21 21 21 20 20 20 20 22 23 24 24 24 24 23 21 20
8 9 9 10 10 10 11 11 12 13 14 16 17 16 16 18 19 20 23 26 28 29 29 30 32 36 37 33 28 25 23 22 21 19 18 17 16 14 15 16 17 20 22 22 22 22 23 23 24 25 26 26 25 24 23 23 24 25 25 26 27 26 24
9 10 10 10 10 10 11 11 12 13 13 15 17 18 18 18 18 18 22 25 25 28 30 32 35 37 36 33 31 27 21 19 19 17 16 17 17 17 17 18 18 19 20 21 21 21 20 20 22 26 28 29 30 29 27 26 26 26 26 27 29 31 30
10 10 11 11 11 11 12 12 13 13 13 14 16 18 19 19 18 18 21 21 21 26 32 33 34 36 35 33 31 26 19 18 18 17 17 19 19 19 20 19 19 18 17 17 18 17 18 20 23 25 26 26 27 28 28 29 29 29 29 29 30 31 30
10 11 11 12 12 12 13 13 14 14 14 14 15 16 17 18 17 18 21 21 22 28 33 32 31 33 33 32 29 25 21 21 21 20 19 20 20 20 20 20 19 18 17 17 17 19 21 23 24 26 26 27 27 26 26 26 27 28 28 28 28 27 25
11 12 12 12 13 13 13 14 14 14 14 14 14 15 16 17 16 16 19 21 24 30 33 31 30 30 31 30 28 24 22 23 22 19 19 19 19 19 18 17 16 17 17 17 19 23 25 25 26 27 28 29 29 27 26 25 25 27 27 27 27 26 25
11 12 13 13 14 14 14 14 14 14 15 15 15 14 14 16 17 16 17 20 26 32 33 29 27 28 29 28 25 22 21 20 19 18 17 17 15 13 13 14 15 17 18 18 22 26 27 27 27 29 31 32 30 27 26 25 25 26 27 27 29 29 29
12 13 14 14 15 15 15 15 15 15 15 16 16 15 14 15 16 16 17 22 28 32 31 27 26 27 27 25 23 19 15 13 12 12 11 11 11 10 11 15 18 20 20 20 23 26 28 29 30 32 33 33 30 27 27 27 26 24 23 24 26 27 28
15 16 17 17 17 17 16 16 15 15 15 15 15 15 13 13 15 18 22 26 30 30 28 27 26 25 24 22 20 15 11 9 7 6 7 9 9 10 11 14 18 20 20 20 22 26 30 31 33 34 35 34 33 31 29 27 24 22 22 23 25 25 26
16 17 18 19 19 18 17 16 16 15 15 16 15 14 14 14 17 21 24 27 29 26 25 26 25 23 20 19 17 16 14 11 8 8 9 9 9 11 11 12 17 20 20 21 25 29 32 34 36 36 36 36 36 35 33 30 27 27 28 29 31 31 30
17 18 20 20 20 19 17 16 16 16 16 16 14 15 17 19 21 23 24 26 26 23 23 24 23 20 18 17 16 15 13 12 11 11 11 11 11 13 12 12 17 22 23 25 29 32 34 36 37 37 37 37 37 35 34 34 34 33 32 32 32 32 30
19 20 23 24 22 20 17 16 15 16 16 16 17 19 20 22 23 22 22 24 24 24 23 21 19 17 15 13 13 12 12 12 12 13 15 15 14 14 13 13 18 23 26 28 31 33 35 36 37 38 38 37 34 33 32 33 33 32 30 29 29 28 26
19 20 22 23 22 20 17 16 16 16 15 14 17 20 20 20 21 22 23 24 23 23 21 18 16 14 12 10 10 11 11 12 13 14 15 16 16 16 16 15 18 24 27 28 30 31 32 34 35 35 34 31 28 27 27 27 26 25 25 25 24 24 23
19 19 19 18 18 18 17 16 16 17 16 15 16 19 20 19 19 22 24 24 22 19 17 14 11 8 7 8 9 10 11 13 14 14 15 17 17 18 19 19 21 24 25 26 27 29 29 28 27 26 25 23 21 21 21 21 19 18 19 20 20 21 21

ECMWFFLT1_850_spd_021.txt.gz
Wind_Speed
15 15 14 12 11 10 11 12 12 12 12 11 11 13 14 15 14 13 12 11 10 8 7 6 4 3 3 3 3 3 4 4 6 6 5 5 5 5 5 7 7 5 4 3 3 3 4 4 3 3 3 4 4 5 6 8 9 9 9 9 9 9 11
15 15 15 13 12 10 11 12 12 12 11 11 11 10 11 14 15 13 12 11 9 7 6 7 6 4 4 3 3 1 1 3 7 8 8 8 7 6 6 6 6 6 5 4 3 3 4 2 2 3 2 2 3 3 4 5 6 8 12 14 14 10 7
17 16 15 14 13 11 12 12 11 11 12 12 11 11 10 11 13 13 11 8 7 7 7 7 6 6 5 5 4 3 3 5 6 7 8 9 8 8 8 8 8 8 7 5 5 5 4 4 4 4 1 2 3 4 2 2 5 6 8 12 15 15 11
17 17 15 14 13 12 12 12 12 12 12 12 12 11 11 11 11 11 9 6 7 11 12 11 10 9 8 7 5 5 5 6 6 5 5 6 7 8 8 8 8 8 7 6 5 6 5 4 4 4 3 2 1 4 4 3 5 7 8 9 10 12 11
16 16 15 14 14 13 13 12 12 12 11 11 11 11 11 11 11 11 10 9 10 11 11 11 11 11 10 9 9 9 8 7 6 5 3 4 6 8 8 7 7 7 7 6 6 6 7 6 6 6 6 5 4 2 3 4 4 7 10 11 9 9 7
16 16 15 13 13 12 13 13 13 12 11 11 10 10 10 10 10 11 11 10 10 10 9 9 9 10 10 9 8 8 9 8 7 6 5 5 5 6 6 6 6 6 6 7 7 7 8 9 9 8 9 9 9 7 3 1 2 6 11 11 8 9 9
16 16 15 13 13 12 12 13 13 12 12 11 10 10 9 9 9 9 9 9 9 8 8 7 7 9 9 8 8 7 7 7 7 6 6 6 5 4 3 2 3 4 4 3 3 3 3 5 6 5 6 6 7 7 5 5 4 7 16 18 12 5 1
15 16 15 13 12 11 10 11 11 12 11 11 10 10 9 8 8 8 8 8 7 7 6 5 5 7 7 7 7 7 6 7 6 6 6 6 5 4 4 3 3 4 4 4 3 2 2 1 1 2 2 2 3 4 6 7 6 6 11 15 16 17 13
14 15 14 12 11 10 9 8 8 9 9 9 9 9 9 9 8 7 7 6 6 6 5 4 3 4 5 5 5 6 6 6 6 6 6 6 5 4 4 5 5 5 5 5 5 4 4 4 4 3 4 4 2 1 2 5 6 4 6 9 11 14 13
15 14 13 12 11 9 9 7 6 5 5 6 7 6 6 7 7 7 6 6 5 5 4 4 3 3 3 3 3 5 5 6 6 6 6 5 5 4 4 5 5 5 5 5 4 4 4 4 4 3 3 3 3 4 3 1 2 2 1 3 3 5 7
16 15 12 11 10 10 9 8 7 5 4 3 4 3 3 3 4 4 4 4 4 4 3 3 2 2 3 3 3 3 4 4 5 5 5 5 5 4 4 4 4 5 5 4 3 4 4 4 5 5 4 4 3 3 4 4 3 4 4 4 4 4 3
14 14 13 10 9 9 9 9 8 7 6 4 3 2 1 1 2 2 3 3 3 3 3 3 2 2 2 2 2 2 2 3 3 3 3 4 3 3 4 3 3 4 5 4 4 4 4 4 5 7 6 6 5 4 4 5 4 4 5 6 6 7 9
11 11 13 11 9 9 9 9 9 8 8 7 6 5 5 5 4 4 5 5 5 5 5 5 4 4 4 3 2 2 1 0 1 1 2 2 2 1 2 2 2 3 4 4 5 5 4 3 4 4 4 4 5 5 5 6 7 7 7 8 8 8 9
11 10 11 11 10 10 9 9 9 8 7 7 7 6 7 8 8 8 7 7 7 6 7 8 7 7 7 6 6 5 4 3 3 2 1 1 0 0 1 0 1 1 1 3 4 5 5 4 3 2 3 3 3 4 6 7 10 11 9 9 10 9 9
15 14 13 11 10 10 10 10 10 9 8 8 8 7 8 10 10 11 11 10 9 8 7 8 8 9 10 10 9 9 7 6 6 6 4 4 3 3 4 4 3 2 2 2 3 3 3 2 2 2 3 3 2 4 6 8 10 12 12 11 11 12 12
18 16 14 12 11 12 11 11 12 11 11 11 9 8 8 8 10 11 13 13 12 12 11 10 10 10 11 12 11 12 12 10 9 10 8 7 7 6 5 5 6 6 5 4 4 4 3 2 1 1 2 3 4 5 7 8 10 12 14 14 14 15 15
18 17 15 13 13 14 14 14 14 14 14 14 14 12 10 9 9 11 13 14 13 14 13 12 12 12 12 13 13 14 14 13 12 12 12 10 10 10 8 7 7 8 8 7 7 7 6 5 4 4 4 4 5 6 7 8 10 11 14 15 15 15 16
21 19 17 17 17 19 19 17 16 16 15 17 17 15 13 12 12 14 15 15 14 14 15 15 15 15 15 15 15 15 15 14 13 14 14 12 12 13 11 9 9 10 10 10 10 10 9 8 7 7 7 7 7 7 7 7 9 10 12 14 15 15 15
21 18 17 19 21 22 23 22 21 20 18 20 22 20 16 14 15 17 18 17 16 15 16 17 18 19 17 16 17 18 18 16 15 15 16 14 14 14 13 11 11 11 11 11 11 12 11 10 9 9 9 9 9 9 9 9 10 10 12 13 14 15 16
19 17 17 19 20 19 20 21 20 17 18 22 25 23 19 16 16 18 19 19 21 21 20 20 22 23 21 19 18 19 20 19 17 17 17 16 16 15 14 13 13 12 12 12 12 12 12 12 11 11 12 12 11 11 12 12 12 12 13 14 15 16 17
16 16 15 16 15 12 12 14 13 13 17 21 22 19 17 17 18 19 19 19 23 25 25 24 24 25 25 22 20 20 21 22 21 21 20 18 17 17 15 15 15 14 13 12 12 13 13 13 13 13 13 14 13 13 13 13 13 14 15 16 17 17 18
9 9 9 9 9 8 8 9 10 13 16 18 17 15 15 16 17 19 19 19 22 25 26 26 26 27 27 25 23 22 23 25 25 24 23 21 20 19 17 16 16 15 14 14 14 14 14 13 13 14 14 14 14 14 14 14 15 16 17 18 19 19 20
5 5 4 3 4 5 6 5 7 8 9 10 10 10 11 12 13 14 16 18 20 22 23 23 24 27 28 28 27 26 25 25 27 28 26 23 22 21 19 17 16 16 16 16 16 16 14 14 14 15 15 15 15 15 15 16 17 18 19 20 21 21 22
5 4 3 2 2 1 1 2 3 4 4 5 6 7 8 9 10 11 13 15 16 18 18 18 19 21 24 26 28 29 28 27 27 29 28 26 25 23 20 18 17 16 17 17 17 16 16 15 16 16 16 16 15 15 16 17 18 19 21 22 22 22 23
4 3 2 1 1 1 1 1 2 3 4 5 6 8 9 9 10 11 12 13 14 14 15 15 16 18 20 23 26 29 30 29 28 30 30 28 27 24 21 19 17 17 18 18 18 17 17 17 18 18 18 17 17 18 19 20 21 21 22 23 23 23 23
4 4 3 4 5 6 6 6 5 5 5 7 8 10 10 10 11 13 14 13 13 13 14 14 15 16 18 20 22 25 29 30 29 31 31 29 28 24 20 19 18 17 18 18 18 18 19 20 20 19 19 19 20 21 22 22 23 23 23 24 24 24 23
6 6 7 8 9 10 10 10 10 9 9 9 9 10 11 12 12 14 16 16 15 14 14 14 15 16 17 19 21 24 27 28 28 29 30 28 26 23 20 18 18 18 18 18 18 19 20 21 20 19 19 19 21 22 23 23 23 23 24 25 26 26 24
7 8 9 9 9 8 7 7 8 9 10 11 11 11 11 12 13 14 16 17 16 15 14 15 16 17 18 19 19 20 23 25 27 28 27 24 22 20 18 18 17 17 17 18 19 20 20 20 20 20 20 21 22 23 24 24 24 25 25 26 27 27 26
7 8 8 9 7 6 5 4 5 6 7 9 10 11 11 12 13 14 15 15 15 15 15 16 17 17 18 18 17 17 20 25 28 28 24 21 21 20 18 18 17 17 18 18 19 19 18 18 18 20 21 22 24 25 26 27 26 26 27 27 28 28 28
9 9 10 9 8 6 6 6 6 6 6 7 9 10 11 12 14 15 16 16 16 16 16 16 16 16 16 16 16 17 20 24 25 24 21 20 21 19 18 17 17 18 19 19 19 18 18 18 19 21 23 24 26 27 28 28 28 28 29 29 29 30 30
10 10 11 10 10 11 11 11 10 8 7 7 8 10 11 13 14 15 16 18 18 18 17 17 16 15 15 15 16 18 21 22 22 20 18 18 18 16 16 17 19 20 20 19 18 18 18 20 21 23 25 26 28 28 29 30 31 31 32 32 33 33 34
10 11 12 13 14 15 14 13 13 11 9 9 9 10 12 14 16 17 18 18 19 18 18 17 17 16 15 15 16 18 20 21 20 18 18 17 15 15 17 19 19 19 17 16 17 18 20 22 24 25 26 28 29 30 30 32 33 35 36 37 36 36 35
14 14 15 15 16 16 16 15 15 15 13 12 10 12 14 16 17 18 19 19 19 19 19 18 17 15 14 15 16 18 20 21 20 19 18 18 17 17 18 19 18 17 17 17 19 21 23 24 25 26 27 29 31 32 33 34 36 36 36 36 34 33 32
15 14 14 14 14 14 16 17 18 18 17 15 12 14 16 17 18 19 19 19 20 20 19 18 16 14 12 14 16 19 20 20 19 19 19 18 17 17 18 18 18 18 20 21 23 24 24 25 26 27 29 31 32 33 34 34 34 32 31 29 28 28 28
16 16 16 15 15 16 19 20 21 21 19 16 14 15 17 18 19 20 21 20 20 19 18 17 14 11 11 13 16 19 20 19 19 19 18 18 17 17 18 20 21 22 24 24 24 24 25 26 27 29 30 30 30 30 29 28 27 25 24 23 24 25 24
16 17 17 17 18 20 21 22 22 21 18 14 14 17 18 18 19 20 20 20 18 16 15 14 12 10 11 13 15 17 18 19 19 19 19 18 18 18 20 22 23 24 24 23 23 23 25 26 27 27 26 25 25 24 23 22 21 20 20 21 21 22 22
20 20 20 21 21 22 22 22 22 20 16 13 14 17 18 18 19 19 18 16 14 13 12 11 11 11 12 13 15 17 19 19 19 19 19 19 19 20 22 23 23 22 21 20 21 22 22 22 21 21 20 20 20 19 19 19 19 19 20 21 21 22 22

ECMWFFLT1_850_spd_024.txt.gz
Wind_Speed
11 12 12 10 9 9 9 9 9 10 11 10 9 8 6 5 6 6 5 4 4 5 4 4 4 3 3 3 2 3 3 2 5 4 3 4 6 6 8 11 10 6 5 5 3 2 2 2 3 3 4 5 6 6 6 6 6 8 10 10 9 7 6
13 13 11 9 9 9 9 9 8 8 8 9 10 10 7 6 6 6 5 4 4 3 2 2 2 1 1 1 2 3 3 1 3 4 4 5 5 5 6 9 10 8 7 5 4 4 5 4 4 5 4 3 3 4 4 2 1 4 7 9 10 9 7
16 14 12 10 10 10 10 10 10 9 9 8 9 11 11 8 7 7 5 4 3 3 3 3 3 3 4 4 4 3 0 2 3 4 6 6 6 5 6 7 9 9 8 6 6 5 5 5 6 6 5 3 2 1 2 1 1 2 4 6 8 9 10
18 15 13 12 12 11 11 11 11 10 10 10 9 10 13 12 9 7 5 3 3 3 3 3 2 1 2 2 2 1 2 4 4 4 4 5 5 5 6 6 7 8 7 6 6 5 5 5 6 6 5 3 3 4 3 2 2 2 3 5 7 7 7
17 15 13 13 13 13 13 12 12 11 10 10 10 10 12 12 9 6 6 6 8 9 9 9 9 9 9 8 7 5 4 4 4 2 1 2 3 4 4 5 6 6 6 5 4 5 5 4 5 5 5 4 3 3 5 6 4 2 2 5 6 5 5
16 14 13 13 14 15 14 13 13 12 11 10 10 10 10 10 9 9 10 10 10 10 10 10 11 10 10 10 9 8 7 6 6 4 2 2 1 2 3 4 4 5 5 5 5 6 6 7 7 7 7 8 7 4 2 7 7 4 3 3 3 5 5
15 15 13 12 15 15 14 14 14 13 13 12 11 11 10 10 10 10 9 9 9 9 10 9 9 9 9 8 8 8 7 7 7 6 5 5 3 2 2 2 2 3 2 3 3 4 4 5 5 5 5 6 7 5 4 6 7 4 5 5 3 5 7
15 15 14 13 14 16 16 16 15 15 14 14 13 12 11 10 10 9 8 7 7 8 9 8 8 8 7 7 7 7 7 7 6 5 5 5 4 4 3 3 4 3 2 1 1 1 1 2 2 2 2 2 2 3 5 5 5 5 7 8 7 7 7
17 17 17 15 14 15 16 16 16 15 14 14 14 13 13 12 10 10 8 7 6 7 8 8 7 7 7 7 7 7 7 7 6 5 5 5 5 4 4 4 4 4 3 2 2 1 0 1 1 2 2 2 1 4 5 5 5 5 6 6 6 7 7
19 17 17 17 15 14 14 15 14 14 14 14 14 13 13 12 11 11 9 8 7 7 7 7 7 6 7 7 7 7 7 7 7 7 6 6 6 6 5 5 4 4 4 3 3 2 2 2 2 2 2 2 1 2 4 5 5 4 3 2 2 3 4
20 17 17 16 15 13 13 13 12 12 12 12 13 13 12 11 11 10 9 8 8 7 6 6 6 6 6 6 6 7 7 7 7 6 6 6 7 6 6 5 5 5 5 4 3 3 2 1 1 1 1 2 2 1 1 2 2 3 2 2 3 4 3
20 17 17 16 15 14 12 11 11 10 9 9 10 10 10 10 9 9 8 7 6 6 5 4 4 5 5 5 5 5 6 6 6 5 4 5 6 5 5 5 5 5 5 4 4 3 3 2 2 2 2 2 3 3 3 3 1 1 3 4 3 4 5
20 18 18 17 16 14 12 11 11 10 9 8 7 7 7 6 6 6 7 6 5 4 3 3 2 2 3 2 2 2 3 3 3 3 2 2 3 3 2 2 3 4 4 4 5 4 4 3 4 4 4 4 4 5 5 5 4 4 5 7 7 6 6
21 21 21 19 17 15 14 13 12 11 9 8 6 5 5 4 4 4 5 6 6 5 4 3 2 1 1 1 1 1 1 1 1 1 2 2 1 1 1 0 1 2 3 4 4 4 4 4 4 4 5 6 6 7 7 7 7 6 6 7 8 8 8
23 22 22 22 21 19 19 17 15 13 11 10 8 6 5 4 4 4 4 4 4 4 5 4 4 3 3 4 4 4 4 3 3 3 2 3 3 2 2 2 2 1 2 2 3 4 5 5 5 5 5 6 7 8 9 9 10 8 7 6 7 8 8
24 22 23 24 23 23 23 20 18 16 14 12 11 10 9 8 7 7 6 6 6 5 5 4 4 4 4 4 5 5 6 6 6 5 5 4 4 4 4 4 3 2 2 3 3 4 4 4 4 5 5 6 7 8 9 10 11 11 10 9 9 10 10
26 24 25 25 23 24 25 22 20 19 16 15 14 13 13 12 11 10 9 9 9 8 8 8 7 7 6 5 5 5 5 6 6 6 5 6 6 6 5 5 5 4 3 4 4 5 4 4 4 5 5 6 7 8 8 9 10 12 12 12 11 11 12
27 27 25 23 22 26 27 24 21 19 16 15 15 15 15 14 13 12 12 12 11 11 10 11 11 11 10 9 8 8 7 7 7 6 6 6 7 7 7 6 6 5 4 4 5 5 6 6 6 6 7 7 7 8 8 9 10 11 12 14 13 13 13
27 27 25 22 22 24 25 23 20 19 17 17 17 17 16 15 14 14 13 14 14 13 13 13 14 14 13 13 12 12 12 11 11 10 9 9 9 9 8 8 7 7 6 5 5 6 7 8 8 9 9 9 9 9 9 9 10 11 11 13 14 15 15
25 24 23 21 20 20 20 19 18 19 19 19 19 19 19 18 16 15 15 15 15 15 15 15 15 16 17 16 16 16 16 15 14 14 13 12 11 11 11 10 10 9 8 7 7 7 8 9 10 11 11 11 11 11 11 11 11 11 12 13 14 16 17
20 21 21 20 20 20 19 18 19 20 21 21 21 21 21 19 16 16 16 18 19 19 19 18 18 18 19 19 19 19 19 19 18 17 16 16 15 14 14 13 12 10 9 8 8 9 11 12 12 12 12 12 12 12 12 13 13 13 14 15 16 18 19
17 18 19 19 18 17 15 15 16 17 18 19 19 17 16 14 13 14 16 18 19 20 21 21 21 21 22 21 21 21 20 20 20 19 18 18 18 18 17 17 16 14 11 10 10 10 12 13 13 13 13 13 13 13 13 14 14 14 15 17 18 20 21
12 12 14 14 13 12 12 13 12 11 11 11 11 11 11 11 12 12 13 14 15 17 18 20 21 21 22 23 24 23 22 22 22 22 21 20 21 21 21 20 20 17 14 13 13 12 12 14 14 14 14 14 14 14 15 15 15 16 17 19 20 21 22
9 8 9 9 8 8 8 8 7 7 7 7 7 8 9 9 9 9 9 10 11 13 15 16 17 18 18 20 22 24 24 24 24 24 24 24 23 23 24 24 23 21 18 15 15 14 13 13 14 14 15 15 16 16 16 16 17 18 19 20 21 21 22
9 8 8 7 7 7 7 7 7 7 8 8 8 8 8 8 8 8 9 9 9 9 11 12 13 14 14 15 17 19 21 22 23 24 26 27 26 26 26 26 26 24 21 17 16 15 14 13 14 16 16 17 18 18 18 18 19 20 21 22 23 24 25
9 9 8 8 8 8 8 8 8 8 9 9 9 10 10 9 9 9 9 10 9 9 10 11 12 13 13 14 15 17 18 19 20 21 23 26 27 27 27 28 27 24 20 18 17 16 14 13 14 17 19 20 21 20 21 21 21 22 23 24 25 25 26
9 9 9 9 9 9 9 9 9 9 10 10 10 11 11 11 11 11 11 11 11 11 12 12 13 13 14 14 14 15 16 17 18 19 21 23 25 26 27 28 26 22 19 18 17 16 13 12 15 18 20 21 21 21 21 22 22 23 25 26 27 27 27
10 10 9 10 11 11 11 12 13 13 14 14 13 13 13 13 12 12 12 11 11 12 14 14 14 14 15 15 15 16 15 16 17 18 19 21 23 25 27 26 23 20 19 18 16 14 13 15 18 21 21 21 21 21 21 22 23 25 26 28 29 30 30
11 11 11 12 12 12 12 11 11 12 12 13 13 14 14 14 14 13 12 12 12 13 15 16 16 15 15 16 17 16 15 15 14 14 15 17 21 25 26 25 22 20 18 16 15 14 16 19 21 22 22 21 21 22 22 23 24 26 28 29 31 32 33
11 12 11 11 11 10 9 8 8 7 7 8 9 10 12 13 13 13 12 13 14 15 17 17 17 16 15 15 15 15 14 12 11 11 12 16 20 23 23 22 20 18 16 15 16 17 20 21 21 21 21 21 22 22 22 24 26 28 29 30 31 33 34
11 11 11 11 11 10 8 8 8 9 9 8 8 8 10 12 13 14 13 14 15 16 16 17 17 16 15 15 14 13 11 10 10 12 14 17 20 21 20 18 17 17 17 18 19 20 21 21 20 20 20 21 22 23 24 26 28 29 30 31 32 34 36
11 12 13 13 12 11 11 12 13 13 12 11 10 10 10 11 13 15 15 15 16 16 17 17 17 17 16 16 15 12 10 9 10 14 17 18 20 20 19 18 18 19 19 20 21 21 20 20 20 20 21 21 23 24 26 28 29 30 32 33 34 35 35
12 13 13 13 13 13 14 15 16 15 14 14 15 15 14 13 13 15 16 17 17 17 18 18 18 17 16 16 15 11 9 10 11 14 17 18 20 20 20 20 20 20 20 20 20 20 20 21 21 21 22 23 25 27 29 30 31 32 34 34 34 33 31
14 14 15 15 16 16 16 16 16 16 16 17 18 19 19 18 15 16 17 17 17 17 17 17 17 16 15 15 13 11 10 11 12 14 16 18 20 20 19 19 19 19 19 19 20 21 22 22 23 24 26 27 29 30 31 31 32 32 32 32 30 29 28
16 17 17 17 17 17 16 16 16 17 19 20 20 21 22 21 18 16 16 16 15 16 16 15 15 14 13 12 11 10 11 13 14 16 17 17 18 17 17 17 18 19 19 20 21 22 23 24 25 27 28 28 28 29 29 30 30 29 29 28 28 27 26
17 17 17 17 18 18 17 16 16 17 20 21 22 23 24 21 18 16 15 14 14 15 15 14 13 12 11 11 10 9 10 13 15 17 17 16 16 16 17 18 19 20 20 21 22 23 25 25 26 26 26 25 26 26 26 26 26 26 26 26 26 27 27
19 19 18 18 19 19 19 19 19 20 22 23 23 24 24 20 17 16 15 13 13 13 14 13 12 12 11 10 10 10 11 13 15 16 16 16 16 17 18 19 19 20 21 22 23 24 24 24 23 23 23 23 23 23 23 23 24 24 24 25 27 28 28

ECMWFFLT1_850_spd_030.txt.gz
Wind_Speed
1 2 2 3 4 4 5 5 6 6 5 4 3 3 2 2 3 3 4 4 4 4 5 5 5 4 3 2 2 3 3 2 1 2 4 6 7 8 8 9 8 7 5 4 3 3 2 4 7 5 3 2 2 4 5 5 5 5 4 5 7 6 6
3 3 3 4 4 4 4 5 5 5 5 4 3 3 3 2 2 3 4 4 3 3 3 3 2 2 2 2 2 2 4 5 4 3 2 2 2 4 5 7 8 6 6 5 3 3 3 6 10 8 5 3 1 1 1 2 2 4 3 2 4 5 5
4 4 4 4 4 4 4 5 5 5 5 5 4 4 3 3 3 4 5 4 2 1 1 1 2 2 3 2 1 3 5 6 7 7 6 5 4 2 1 2 5 4 5 5 3 2 2 5 10 12 8 5 5 6 4 2 1 1 2 3 4 5 6
5 4 4 4 4 4 5 5 4 4 4 4 4 3 3 3 4 5 6 4 3 3 3 3 3 2 1 2 4 6 6 7 7 8 7 8 7 5 6 5 3 2 3 5 5 4 3 5 8 10 9 8 9 9 9 7 5 3 2 3 4 4 5
5 4 4 4 4 4 5 4 3 3 4 4 4 3 3 3 5 6 6 6 7 7 7 7 7 7 7 8 8 8 7 7 7 8 7 8 7 6 7 7 5 5 6 6 5 3 3 3 4 6 7 6 9 11 11 10 8 6 4 2 1 1 2
6 5 4 3 3 3 3 3 3 3 3 4 3 2 2 3 4 5 6 7 8 8 8 7 7 8 8 9 9 9 9 9 10 9 9 9 9 7 7 6 5 4 4 3 3 3 3 2 2 5 7 7 8 10 9 8 9 9 8 6 5 3 1
7 5 4 2 1 1 2 2 2 3 3 3 3 3 3 3 3 4 5 5 6 6 6 6 6 7 7 8 8 8 8 9 10 10 10 10 9 9 9 8 7 6 5 5 5 5 6 5 5 5 7 9 8 7 7 7 7 7 8 8 6 4 2
8 6 6 3 2 2 1 2 2 3 3 2 3 4 4 4 4 4 3 2 4 4 5 5 6 7 8 8 8 8 8 9 9 9 9 9 10 10 10 9 9 8 8 8 8 7 7 7 6 5 6 9 10 9 8 7 7 7 8 8 6 4 3
9 8 8 6 5 4 3 2 2 2 2 2 2 3 4 5 5 5 3 2 2 3 4 6 7 9 10 10 11 10 10 11 11 10 11 11 11 11 11 10 9 9 9 10 10 10 10 9 8 6 4 6 10 11 10 9 7 7 7 5 4 4 3
10 10 9 8 6 5 6 4 2 1 2 1 2 2 3 4 5 5 4 3 2 3 3 5 6 8 10 11 12 12 12 13 13 13 13 12 13 12 12 12 11 11 12 12 12 12 12 12 11 9 7 5 6 9 10 9 7 6 5 3 2 2 2
12 11 11 9 8 8 8 6 5 4 3 3 2 2 2 3 3 3 4 3 3 2 2 3 4 5 7 9 10 11 11 12 12 12 13 12 13 13 12 11 11 11 12 11 11 12 12 12 12 11 10 9 6 6 8 8 6 4 3 2 1 1 1
14 14 14 13 12 12 10 9 8 7 6 5 4 3 3 2 2 2 2 3 2 2 2 2 2 3 4 5 6 7 9 10 9 10 10 10 10 10 10 9 9 9 9 9 9 9 10 10 10 9 10 10 9 8 7 7 6 4 3 2 3 2 2
17 17 17 15 15 14 13 12 12 9 8 7 5 5 4 3 3 2 2 2 2 1 1 1 1 1 2 2 2 3 4 6 6 6 7 7 7 7 7 7 6 6 7 7 7 7 7 7 7 7 7 7 7 8 7 6 5 5 3 2 3 3 4
20 19 18 16 16 15 13 14 14 11 10 9 7 6 5 4 4 3 3 2 2 2 2 2 2 2 1 1 0 0 0 1 2 3 3 3 4 4 4 4 4 4 5 5 5 5 5 5 5 5 5 5 5 5 5 4 4 4 3 2 2 3 4
22 21 19 17 17 17 15 16 16 13 12 11 9 8 7 6 5 5 4 3 3 3 4 4 3 3 2 2 1 1 2 3 2 2 2 1 1 2 2 2 1 2 3 3 3 4 4 4 4 5 5 5 5 5 5 4 3 3 2 2 3 4 5
24 24 21 19 19 19 18 18 17 15 14 14 12 10 9 8 7 6 5 5 4 3 4 6 6 5 3 2 1 1 2 2 3 3 3 3 3 2 2 2 1 1 2 2 2 3 3 4 4 5 5 5 6 6 6 6 5 4 4 4 4 6 7
24 26 25 21 21 21 20 19 18 17 16 16 15 12 11 10 9 9 8 7 6 6 6 7 7 7 5 3 2 2 2 2 2 3 3 4 4 4 4 3 2 1 0 1 1 2 2 3 4 5 6 7 7 7 8 8 8 7 7 7 7 8 9
24 27 27 23 22 21 20 20 19 18 18 18 16 14 14 13 13 12 12 11 11 10 10 9 10 12 10 6 5 4 4 3 3 3 3 4 4 4 5 4 4 2 2 1 1 1 2 2 3 5 6 7 8 8 9 9 10 10 10 10 10 10 11
23 26 26 24 23 21 20 21 20 19 19 19 17 15 15 15 16 16 15 14 15 15 15 14 15 17 16 12 9 8 8 7 7 7 7 6 6 6 5 5 5 4 3 3 3 4 4 3 3 5 6 8 8 9 9 10 11 12 12 12 13 13 13
23 24 23 22 22 21 20 20 20 21 21 22 21 21 20 18 16 17 17 17 18 19 18 18 18 18 17 16 13 12 12 11 10 11 12 11 11 10 8 8 7 6 5 5 5 6 6 6 6 6 7 8 9 10 11 11 12 12 13 14 15 15 16
22 23 21 19 20 21 20 19 19 21 21 20 21 23 23 21 19 19 19 20 22 21 19 19 18 16 15 16 15 14 14 14 14 14 14 15 15 14 13 11 10 10 9 8 8 8 8 8 9 9 8 9 10 11 11 11 12 13 15 16 17 17 18
17 20 21 19 19 20 21 20 20 20 20 19 20 21 22 22 23 24 22 21 21 21 20 20 18 15 14 15 16 17 18 18 17 17 17 17 17 16 16 15 14 14 13 13 13 12 11 11 11 11 11 10 11 11 9 8 11 14 16 18 19 19 18
15 18 20 20 19 19 19 20 19 19 19 20 19 19 19 20 22 23 22 22 21 22 21 19 15 14 15 16 18 20 21 19 18 18 18 18 17 16 16 16 16 16 17 17 18 16 15 14 14 13 14 13 12 10 7 8 11 14 16 18 18 19 19
12 14 17 19 20 18 18 18 17 17 18 19 18 17 17 19 20 20 20 20 19 19 16 14 12 12 14 16 17 18 18 18 18 18 17 17 17 17 17 17 18 19 19 20 21 20 19 18 17 16 16 16 14 12 9 9 12 14 15 17 18 19 20
11 12 13 15 17 17 18 17 17 17 17 18 17 16 14 14 13 13 13 13 13 12 10 9 9 10 10 11 12 12 13 14 15 15 15 15 15 17 18 19 20 21 21 21 22 23 22 20 19 18 17 16 15 13 11 10 13 14 15 17 18 20 21
11 12 12 14 15 16 16 17 16 16 15 14 13 12 10 9 8 9 9 8 7 7 7 7 8 7 7 7 8 8 9 10 11 12 12 12 13 14 15 16 17 19 20 21 21 22 23 21 20 19 18 17 16 14 12 13 14 15 17 18 20 21 22
9 11 12 13 12 12 13 12 12 11 11 10 9 8 7 7 7 7 7 6 6 6 7 8 8 8 9 9 9 9 9 10 11 11 12 12 13 13 13 14 15 15 17 18 18 19 21 21 21 20 19 18 16 15 14 15 16 17 19 22 22 23 24
8 9 10 11 10 9 9 9 9 8 8 7 6 6 6 6 7 7 8 9 9 10 10 11 10 10 10 10 10 10 10 11 11 12 12 13 13 14 14 14 15 15 14 14 14 17 20 21 21 20 19 18 16 15 15 16 18 19 21 23 24 24 26
7 7 7 7 7 7 7 8 8 8 7 7 7 7 8 8 9 11 11 12 12 12 12 11 11 10 10 9 9 10 10 11 11 11 11 11 11 12 13 14 15 14 14 12 12 15 18 20 20 19 18 17 16 15 16 18 20 22 23 23 24 26 28
7 8 7 7 7 7 7 7 7 7 8 8 8 9 9 10 10 10 11 11 12 12 11 11 11 10 10 9 9 9 10 11 12 12 11 10 10 10 11 12 12 12 11 9 10 14 18 19 19 18 17 16 16 16 17 20 22 23 24 24 25 27 29
8 7 7 7 8 9 9 8 9 8 8 8 7 7 7 6 6 7 7 9 10 11 11 11 11 11 11 10 9 10 11 12 13 13 13 12 9 8 8 8 7 7 6 6 9 14 17 18 17 17 16 16 16 17 19 21 23 24 24 25 27 29 30
10 9 9 8 9 10 10 10 9 9 8 8 7 6 5 5 6 6 7 9 10 11 13 13 14 14 13 12 11 11 11 12 13 13 13 12 11 9 7 6 5 5 5 7 11 14 16 16 16 16 16 16 17 19 20 22 24 25 26 27 29 29 29
10 10 10 9 9 10 10 10 10 10 10 9 9 7 6 7 8 8 9 10 10 11 13 14 15 15 15 14 13 12 11 12 12 12 12 11 10 9 8 6 6 6 8 11 14 15 16 16 16 16 16 17 18 20 22 24 26 27 28 30 30 30 29
17 17 17 17 16 15 14 14 13 13 13 12 11 10 9 9 10 10 10 11 11 12 12 13 13 14 14 13 12 11 10 10 10 10 9 9 8 8 8 7 7 8 10 12 14 16 16 16 15 15 17 19 20 22 23 26 28 29 30 31 31 31 31
20 20 21 22 21 21 21 19 18 16 15 14 13 12 11 10 10 10 11 12 13 13 13 13 13 12 11 11 10 8 8 8 8 8 7 7 6 7 8 9 9 10 11 13 14 16 16 16 15 16 19 21 22 24 26 27 29 30 30 30 31 31 31
18 18 20 20 20 21 22 21 20 18 17 16 14 13 12 11 11 11 12 12 13 15 14 13 12 11 10 9 8 8 7 7 8 8 7 7 8 9 10 10 10 12 13 13 14 15 16 16 17 19 21 23 24 26 27 27 28 28 28 29 30 30 30
21 21 22 22 22 22 22 22 21 21 19 18 16 14 13 12 12 13 13 14 13 14 14 12 10 9 7 7 7 8 7 8 9 9 9 10 11 12 11 10 11 13 13 14 15 16 17 19 20 21 23 23 24 25 25 25 26 27 28 28 29 29 29

ECMWFFLT1_850_spd_036.txt.gz
Wind_Speed
12 12 11 10 10 10 11 11 9 8 9 8 7 6 6 5 5 6 5 5 5 4 4 2 2 1 1 1 1 1 1 0 1 2 4 5 4 5 6 6 7 9 8 7 6 5 6 4 4 2 1 1 1 2 2 2 1 2 2 3 3 1 1
11 12 11 10 10 11 12 12 10 9 9 10 9 8 7 7 6 6 5 5 4 4 5 3 2 2 1 1 1 1 2 2 3 3 3 4 4 4 5 6 5 5 5 6 7 7 6 2 4 4 3 2 2 2 2 2 1 1 1 3 3 2 1
12 12 11 11 11 11 12 13 12 10 9 10 10 9 8 7 7 7 6 5 4 4 4 4 2 2 1 1 1 1 1 2 3 3 2 3 4 5 5 5 4 3 2 2 4 5 3 1 3 5 5 5 6 7 6 5 4 2 1 2 3 3 2
12 11 11 12 11 11 12 12 12 11 10 11 11 11 10 9 9 9 8 7 6 5 5 6 6 5 3 3 3 2 2 2 2 1 2 2 2 3 4 4 3 2 2 2 3 3 3 3 4 6 7 7 9 9 9 9 8 7 5 4 5 4 4
11 11 11 12 12 12 12 12 12 12 12 12 12 12 12 13 13 13 12 11 9 9 9 9 9 9 7 6 5 4 4 3 3 3 3 3 4 4 5 4 3 2 3 3 3 3 3 4 5 6 7 8 9 9 10 11 11 10 9 9 8 8 7
11 10 10 11 12 12 12 12 12 12 12 13 13 13 13 14 14 13 13 12 10 9 9 10 10 11 9 7 6 6 6 6 6 5 5 5 6 6 6 5 4 3 3 3 4 3 3 5 5 6 7 8 9 9 9 9 9 10 10 9 9 9 9
10 10 10 9 11 11 11 12 13 13 13 13 13 13 13 13 13 12 11 11 10 8 8 9 9 10 10 8 7 8 8 9 9 9 9 8 8 8 7 6 5 5 4 4 4 3 3 4 5 6 6 7 7 7 7 6 7 7 8 8 8 7 6
8 10 10 9 9 10 11 12 13 13 14 14 14 13 12 12 12 11 11 10 9 8 8 8 8 9 10 8 7 9 9 10 10 10 10 10 10 10 9 8 7 6 6 6 5 4 3 3 4 5 6 6 6 6 6 6 6 6 6 6 7 6 4
8 9 10 10 9 10 11 12 13 14 14 14 13 12 12 11 11 11 11 10 10 9 9 9 9 9 9 9 8 9 9 10 10 11 11 10 10 10 10 9 8 7 7 6 5 5 5 4 4 5 5 4 4 5 5 5 5 5 5 5 4 3 2
8 8 9 10 9 11 12 13 14 14 13 13 13 12 12 11 11 11 11 11 11 10 10 10 10 10 10 9 9 9 9 10 10 10 11 10 11 11 10 10 9 7 7 7 6 6 6 6 5 5 4 2 2 3 4 5 4 4 4 4 4 3 2
10 8 9 10 10 12 14 14 15 15 13 11 12 13 12 11 11 11 11 11 11 11 11 10 10 10 10 10 9 9 10 10 10 10 11 11 11 11 10 10 9 8 8 8 8 8 7 7 6 4 3 2 2 1 2 4 5 4 3 3 4 3 2
11 10 11 12 12 13 14 12 15 16 14 12 13 13 12 11 11 11 10 10 10 10 10 10 10 10 10 10 10 9 9 10 10 9 10 10 10 10 9 9 8 8 9 9 9 9 8 8 7 4 3 3 3 2 2 3 4 4 3 2 2 1 1
12 12 12 13 15 15 13 11 14 16 15 13 13 13 12 11 10 10 10 9 9 8 8 9 9 9 9 9 8 8 8 8 7 7 7 7 7 8 7 6 6 6 7 7 7 8 7 7 7 6 5 3 4 4 3 2 4 5 4 2 2 0 1
12 13 13 14 17 17 14 12 14 16 16 15 14 13 13 12 11 10 9 8 8 7 7 7 7 7 7 7 7 7 7 7 5 4 5 4 4 5 5 4 3 3 4 5 6 6 5 6 6 6 6 5 4 5 3 3 5 4 4 3 1 1 2
13 14 14 15 17 18 16 13 13 15 15 15 15 14 14 13 12 11 10 9 8 7 6 6 6 6 6 5 6 6 6 7 6 5 4 3 2 3 3 3 1 1 1 3 5 4 4 5 4 4 5 5 4 5 4 4 4 4 3 1 1 1 3
14 15 16 16 18 19 18 14 12 13 15 14 15 15 15 14 13 12 11 10 9 8 7 6 5 5 4 4 5 5 5 7 7 7 5 4 1 0 1 2 1 1 1 1 3 4 4 5 4 4 5 5 4 4 4 4 4 4 4 2 2 1 3
14 15 17 18 19 20 20 16 13 13 15 14 15 15 15 15 14 13 13 11 10 9 8 7 5 4 4 4 5 5 5 5 6 7 7 5 4 3 1 0 1 1 2 2 2 3 4 4 4 3 4 4 4 4 4 4 4 3 3 2 2 2 3
13 15 18 19 20 20 19 17 15 16 16 16 16 16 16 16 15 15 14 13 12 11 9 8 7 6 5 5 5 5 5 5 5 6 6 7 7 7 6 3 3 3 3 2 2 2 3 4 4 3 3 3 2 2 2 3 2 2 3 2 1 1 2
12 15 18 19 20 20 19 18 17 18 17 17 17 17 16 16 15 15 15 14 13 11 10 10 10 9 7 6 6 7 7 7 8 9 9 9 8 8 8 7 7 7 7 5 5 5 4 4 4 3 3 4 3 2 1 1 1 1 2 2 1 2 2
12 14 16 18 20 21 20 18 18 19 19 19 18 18 18 17 17 16 15 14 13 12 12 13 14 13 10 9 9 8 9 10 10 11 12 12 11 11 11 11 11 10 9 9 10 10 9 10 8 6 6 6 5 4 2 1 1 1 1 1 1 2 3
11 12 14 15 18 22 22 20 19 20 21 20 19 19 19 18 18 18 18 17 16 16 15 15 15 14 13 12 11 10 10 10 10 10 11 12 13 12 12 13 13 12 11 11 12 13 12 12 11 10 10 8 7 5 4 3 2 2 2 2 2 2 2
10 11 12 12 14 17 19 20 20 21 21 21 21 20 20 19 19 20 20 20 19 19 18 17 16 14 12 12 11 11 10 10 9 10 11 12 13 13 13 14 15 14 13 12 12 14 13 12 13 13 11 9 9 9 7 5 4 3 3 4 4 4 4
7 9 10 11 12 12 13 16 19 21 21 21 21 20 20 19 18 18 18 18 19 20 19 20 20 19 18 16 14 13 12 10 10 11 12 13 13 13 13 13 14 14 14 13 13 14 14 13 13 14 11 10 11 12 10 8 6 5 4 5 5 4 5
5 7 7 8 10 11 12 13 15 19 20 21 20 19 19 19 17 16 15 16 18 20 20 22 22 23 24 22 19 15 12 11 11 11 11 10 9 9 9 9 11 13 13 14 15 15 15 15 15 15 13 12 13 13 12 9 8 7 7 7 7 7 6
3 5 6 6 8 10 11 12 12 14 16 17 17 18 18 17 16 16 16 17 18 18 19 21 20 19 20 20 18 14 11 10 9 8 8 7 6 7 7 8 9 11 12 14 15 15 15 16 17 17 16 15 14 14 13 10 10 10 11 11 11 11 9
2 4 4 5 6 8 9 10 11 12 14 15 16 17 17 17 17 18 18 18 18 17 17 18 16 15 15 14 13 11 9 9 8 7 7 7 7 7 7 7 7 8 10 12 13 14 14 13 14 15 16 16 16 15 13 12 12 12 13 13 13 11 11
2 4 4 5 6 7 8 9 11 13 15 16 16 18 17 16 18 18 18 17 15 14 14 13 12 11 11 10 10 10 9 9 8 8 9 10 9 10 9 9 8 8 10 11 11 13 13 12 12 13 13 15 16 15 13 13 13 13 13 14 13 11 13
3 4 5 6 7 7 8 9 10 11 13 14 15 16 16 14 14 13 14 14 13 11 10 9 9 9 10 10 10 9 9 9 7 8 10 10 10 10 10 10 9 10 10 10 10 12 13 12 12 11 11 13 14 14 14 14 14 14 14 14 14 13 14
4 5 6 6 6 6 7 6 6 6 6 7 8 9 8 8 8 9 10 11 11 10 8 8 8 9 10 10 10 9 8 7 6 6 7 7 7 7 7 7 7 8 9 9 10 12 12 11 10 10 10 11 13 15 16 15 15 15 15 14 14 15 16
4 5 7 7 6 7 7 6 6 6 5 6 6 6 7 7 8 9 10 11 10 10 9 9 9 9 10 10 9 8 6 6 6 6 6 5 5 5 5 5 6 8 9 10 10 11 12 10 9 9 10 11 13 16 16 16 15 14 14 14 15 16 18
5 6 8 8 9 10 10 9 8 8 8 9 10 9 9 10 10 11 12 13 13 12 11 10 10 10 10 10 9 8 7 7 7 6 6 5 6 6 6 6 6 7 9 9 9 9 10 9 9 9 9 10 13 16 16 16 15 14 14 16 18 19 21
8 8 8 8 9 10 10 10 10 10 10 11 11 11 11 11 12 13 13 14 13 13 11 11 11 11 11 10 9 8 7 7 8 7 6 6 7 7 6 6 6 7 8 8 8 8 8 9 8 8 8 9 11 14 16 16 15 15 16 18 19 21 23
11 10 9 9 9 10 9 9 10 11 11 11 12 12 12 12 12 12 12 12 11 10 9 8 8 8 8 9 9 9 8 8 8 8 7 7 7 7 7 6 6 6 6 6 6 6 8 8 8 8 9 10 12 15 16 16 16 16 17 19 21 23 25
14 14 12 11 11 12 12 12 13 13 13 12 13 14 13 13 13 12 12 11 10 9 8 7 6 5 5 5 6 8 9 9 9 9 8 8 7 7 7 6 5 5 5 4 4 4 6 7 8 10 12 13 14 15 16 17 18 19 20 21 21 21 21
18 17 16 15 13 13 13 14 16 16 15 14 16 17 16 14 14 13 12 11 9 8 7 6 5 5 5 4 4 6 8 10 11 10 10 9 8 8 8 7 5 5 5 4 4 5 6 8 10 12 13 14 16 16 16 18 20 20 18 17 16 16 15
21 21 21 21 20 19 16 15 16 17 18 18 19 20 18 16 15 15 13 11 10 10 9 8 8 7 6 5 4 4 7 10 11 11 10 9 10 10 9 7 6 6 5 5 6 6 8 9 11 13 14 15 16 17 17 18 18 17 15 14 14 14 13
26 25 25 24 25 25 23 20 19 20 20 20 21 22 21 19 18 17 15 14 13 12 10 9 9 8 8 7 6 5 6 8 10 11 11 11 11 11 9 7 7 7 6 6 7 8 9 10 10 11 12 13 14 14 14 13 13 13 14 13 13 12 12